Location: Cactus School
(34.5700°N, 118.0931°W)
Time: 02:48:17
(UTC-07:00)

Transit 4A - Pass Details

Date: 15 April 2024
Orbit: 871 x 971 km, 66.8° (Epoch: 20 May)

Event Time Altitude Azimuth Distance (km) Brightness Sun altitude
Rises 15:56:06 0° 256° (WSW) 3,540 11.8 41.6°
Reaches altitude 10° 15:59:54 10° 279° (W) 2,580 11.2 40.8°
Maximum altitude 16:03:07 15° 312° (NW) 2,243 10.4 40.2°
Drops below altitude 10° 16:06:19 10° 346° (NNW) 2,553 10.3 39.6°
Sets 16:10:04 0° 10° (N) 3,481 10.7 38.9°
